Time,TemperatureF,DewpointF,PressureIn,WindDirection,WindDirectionDegrees,WindSpeedMPH,WindSpeedGustMPH,Humidity,HourlyPrecipIn,Conditions,Clouds,dailyrainin,SoftwareType,DateUTC
2013-01-29 00:01:00,40.0,31.0,30.06,West,272,0.0,-999.0,70,-99.99,,,-99.99,,2013-01-29 08:01:00,
2013-01-29 00:11:00,40.0,31.0,30.06,West,272,0.0,-999.0,70,-99.99,,,-99.99,,2013-01-29 08:11:00,
2013-01-29 00:21:00,40.0,30.0,30.06,West,272,0.0,-999.0,67,-99.99,,,-99.99,,2013-01-29 08:21:00,
2013-01-29 00:31:00,41.0,30.0,30.06,West,272,0.0,-999.0,65,-99.99,,,-99.99,,2013-01-29 08:31:00,
2013-01-29 00:41:00,41.0,30.0,30.06,West,272,0.0,-999.0,65,-99.99,,,-99.99,,2013-01-29 08:41:00,
2013-01-29 00:52:00,41.0,31.0,30.08,West,272,0.0,-999.0,66,-99.99,,,-99.99,,2013-01-29 08:52:00,
2013-01-29 01:01:00,41.0,31.0,30.07,West,272,0.0,-999.0,68,-99.99,,,-99.99,,2013-01-29 09:01:00,
2013-01-29 01:11:00,41.0,31.0,30.07,West,272,0.0,-999.0,68,-99.99,,,-99.99,,2013-01-29 09:11:00,
2013-01-29 01:21:00,40.0,31.0,30.07,West,272,0.0,-999.0,69,-99.99,,,-99.99,,2013-01-29 09:21:00,
2013-01-29 01:31:00,40.0,30.0,30.07,West,272,0.0,-999.0,68,-99.99,,,-99.99,,2013-01-29 09:31:00,
2013-01-29 01:42:00,40.0,30.0,30.07,West,272,0.0,-999.0,68,-99.99,,,-99.99,,2013-01-29 09:42:00,
2013-01-29 01:52:00,40.0,30.0,30.07,West,272,0.0,-999.0,68,-99.99,,,-99.99,,2013-01-29 09:52:00,
2013-01-29 02:01:00,40.0,30.0,30.07,West,272,0.0,-999.0,68,-99.99,,,-99.99,,2013-01-29 10:01:00,
2013-01-29 02:11:00,40.0,30.0,30.07,West,272,0.0,-999.0,68,-99.99,,,-99.99,,2013-01-29 10:11:00,
2013-01-29 02:21:00,40.0,31.0,30.08,West,272,0.0,-999.0,70,-99.99,,,-99.99,,2013-01-29 10:21:00,
2013-01-29 02:32:00,39.0,31.0,30.07,West,272,0.0,-999.0,72,-99.99,,,-99.99,,2013-01-29 10:32:00,
2013-01-29 02:41:00,39.0,31.0,30.07,West,272,0.0,-999.0,72,-99.99,,,-99.99,,2013-01-29 10:41:00,
2013-01-29 02:52:00,39.0,30.0,30.07,West,272,0.0,-999.0,71,-99.99,,,-99.99,,2013-01-29 10:52:00,
2013-01-29 03:01:00,39.0,31.0,30.08,West,272,0.0,-999.0,72,-99.99,,,-99.99,,2013-01-29 11:01:00,
2013-01-29 03:11:00,39.0,31.0,30.08,West,272,0.0,-999.0,72,-99.99,,,-99.99,,2013-01-29 11:11:00,
2013-01-29 03:21:00,39.0,31.0,30.08,West,272,0.0,-999.0,72,-99.99,,,-99.99,,2013-01-29 11:21:00,
2013-01-29 03:31:00,38.0,30.0,30.07,West,272,0.0,-999.0,73,-99.99,,,-99.99,,2013-01-29 11:31:00,
2013-01-29 03:41:00,38.0,30.0,30.07,West,272,0.0,-999.0,73,-99.99,,,-99.99,,2013-01-29 11:41:00,
2013-01-29 03:52:00,38.0,30.0,30.08,West,272,0.0,-999.0,72,-99.99,,,-99.99,,2013-01-29 11:52:00,
2013-01-29 04:02:00,38.0,30.0,30.08,West,272,0.0,-999.0,74,-99.99,,,-99.99,,2013-01-29 12:02:00,
2013-01-29 04:12:00,38.0,30.0,30.08,West,272,0.0,-999.0,74,-99.99,,,-99.99,,2013-01-29 12:12:00,
2013-01-29 04:21:00,38.0,30.0,30.08,West,272,0.0,-999.0,74,-99.99,,,-99.99,,2013-01-29 12:21:00,
2013-01-29 04:32:00,38.0,31.0,30.07,West,272,0.0,-999.0,75,-99.99,,,-99.99,,2013-01-29 12:32:00,
2013-01-29 04:42:00,38.0,31.0,30.07,West,272,0.0,-999.0,75,-99.99,,,-99.99,,2013-01-29 12:42:00,
2013-01-29 04:52:00,38.0,31.0,30.08,West,272,0.0,-999.0,77,-99.99,,,-99.99,,2013-01-29 12:52:00,
2013-01-29 05:01:00,37.0,30.0,30.07,West,272,0.0,-999.0,77,-99.99,,,-99.99,,2013-01-29 13:01:00,
2013-01-29 05:11:00,37.0,30.0,30.07,West,272,0.0,-999.0,77,-99.99,,,-99.99,,2013-01-29 13:11:00,
2013-01-29 05:22:00,37.0,30.0,30.07,West,272,0.0,-999.0,76,-99.99,,,-99.99,,2013-01-29 13:22:00,
2013-01-29 05:31:00,37.0,30.0,30.07,West,272,0.0,-999.0,76,-99.99,,,-99.99,,2013-01-29 13:31:00,
2013-01-29 05:42:00,37.0,30.0,30.07,West,272,0.0,-999.0,76,-99.99,,,-99.99,,2013-01-29 13:42:00,
2013-01-29 05:52:00,38.0,32.0,30.07,West,272,0.0,-999.0,78,-99.99,,,-99.99,,2013-01-29 13:52:00,
2013-01-29 06:01:00,37.0,31.0,30.07,West,272,0.0,-999.0,79,-99.99,,,-99.99,,2013-01-29 14:01:00,
2013-01-29 06:11:00,37.0,31.0,30.07,West,272,0.0,-999.0,79,-99.99,,,-99.99,,2013-01-29 14:11:00,
2013-01-29 06:21:00,37.0,31.0,30.07,West,272,0.0,-999.0,79,-99.99,,,-99.99,,2013-01-29 14:21:00,
2013-01-29 06:32:00,37.0,31.0,30.07,West,272,0.0,-999.0,79,-99.99,,,-99.99,,2013-01-29 14:32:00,
2013-01-29 06:42:00,37.0,31.0,30.07,West,272,0.0,-999.0,79,-99.99,,,-99.99,,2013-01-29 14:42:00,
2013-01-29 06:52:00,37.0,31.0,30.08,West,272,0.0,-999.0,78,-99.99,,,-99.99,,2013-01-29 14:52:00,
2013-01-29 07:01:00,37.0,31.0,30.09,West,272,0.0,-999.0,79,-99.99,,,-99.99,,2013-01-29 15:01:00,
2013-01-29 07:11:00,37.0,31.0,30.09,West,272,0.0,-999.0,79,-99.99,,,-99.99,,2013-01-29 15:11:00,
2013-01-29 07:21:00,38.0,32.0,30.08,West,272,0.0,-999.0,78,-99.99,,,-99.99,,2013-01-29 15:21:00,
2013-01-29 07:32:00,38.0,32.0,30.09,West,272,0.0,-999.0,80,-99.99,,,-99.99,,2013-01-29 15:32:00,
2013-01-29 07:42:00,38.0,32.0,30.09,West,272,0.0,-999.0,80,-99.99,,,-99.99,,2013-01-29 15:42:00,
2013-01-29 07:53:00,38.0,32.0,30.09,West,272,0.0,-999.0,80,-99.99,,,-99.99,,2013-01-29 15:53:00,
2013-01-29 08:01:00,39.0,33.0,30.09,West,272,0.0,-999.0,78,-99.99,,,-99.99,,2013-01-29 16:01:00,
2013-01-29 08:12:00,39.0,33.0,30.09,West,272,0.0,-999.0,78,-99.99,,,-99.99,,2013-01-29 16:12:00,
2013-01-29 08:22:00,40.0,34.0,30.09,West,272,0.0,-999.0,78,-99.99,,,-99.99,,2013-01-29 16:22:00,
2013-01-29 08:31:00,41.0,34.0,30.09,West,272,0.0,-999.0,76,-99.99,,,-99.99,,2013-01-29 16:31:00,
2013-01-29 08:42:00,41.0,34.0,30.09,West,272,0.0,-999.0,76,-99.99,,,-99.99,,2013-01-29 16:42:00,
2013-01-29 08:53:00,43.0,35.0,30.09,West,272,0.0,-999.0,72,-99.99,,,-99.99,,2013-01-29 16:53:00,
2013-01-29 09:02:00,46.0,34.0,30.09,West,272,0.0,-999.0,63,-99.99,,,-99.99,,2013-01-29 17:02:00,
2013-01-29 09:11:00,46.0,34.0,30.09,West,272,0.0,-999.0,63,-99.99,,,-99.99,,2013-01-29 17:11:00,
2013-01-29 09:21:00,48.0,35.0,30.10,West,272,0.0,-999.0,60,-99.99,,,-99.99,,2013-01-29 17:21:00,
2013-01-29 09:31:00,49.0,35.0,30.10,West,272,0.0,-999.0,59,-99.99,,,-99.99,,2013-01-29 17:31:00,
2013-01-29 09:42:00,49.0,35.0,30.10,West,272,0.0,-999.0,59,-99.99,,,-99.99,,2013-01-29 17:42:00,
2013-01-29 09:52:00,51.0,37.0,30.10,West,272,0.0,-999.0,58,-99.99,,,-99.99,,2013-01-29 17:52:00,
2013-01-29 10:02:00,52.0,36.0,30.09,West,272,0.0,-999.0,55,-99.99,,,-99.99,,2013-01-29 18:02:00,
2013-01-29 10:12:00,52.0,36.0,30.09,West,272,0.0,-999.0,55,-99.99,,,-99.99,,2013-01-29 18:12:00,
2013-01-29 10:21:00,53.0,37.0,30.09,West,272,0.0,-999.0,55,-99.99,,,-99.99,,2013-01-29 18:21:00,
2013-01-29 10:33:00,54.0,37.0,30.09,West,272,0.0,-999.0,52,-99.99,,,-99.99,,2013-01-29 18:33:00,
2013-01-29 10:42:00,54.0,37.0,30.09,West,272,0.0,-999.0,52,-99.99,,,-99.99,,2013-01-29 18:42:00,
2013-01-29 10:52:00,55.0,36.0,30.08,NNE,32,0.0,-999.0,49,-99.99,,,-99.99,,2013-01-29 18:52:00,
2013-01-29 11:01:00,56.0,37.0,30.08,NE,34,0.0,-999.0,48,-99.99,,,-99.99,,2013-01-29 19:01:00,
2013-01-29 11:11:00,56.0,37.0,30.08,NE,34,0.0,-999.0,48,-99.99,,,-99.99,,2013-01-29 19:11:00,
2013-01-29 11:22:00,56.0,36.0,30.07,ESE,112,0.0,-999.0,47,-99.99,,,-99.99,,2013-01-29 19:22:00,
2013-01-29 11:31:00,56.0,36.0,30.07,ESE,114,0.0,-999.0,47,-99.99,,,-99.99,,2013-01-29 19:31:00,
2013-01-29 11:41:00,56.0,36.0,30.07,ESE,114,0.0,-999.0,47,-99.99,,,-99.99,,2013-01-29 19:41:00,
2013-01-29 11:52:00,57.0,36.0,30.06,ESE,107,0.0,-999.0,45,-99.99,,,-99.99,,2013-01-29 19:52:00,
2013-01-29 12:01:00,58.0,36.0,30.06,East,99,0.0,-999.0,43,-99.99,,,-99.99,,2013-01-29 20:01:00,
2013-01-29 12:11:00,58.0,36.0,30.06,East,99,0.0,-999.0,43,-99.99,,,-99.99,,2013-01-29 20:11:00,
2013-01-29 12:21:00,59.0,35.0,30.04,ESE,115,0.0,-999.0,41,-99.99,,,-99.99,,2013-01-29 20:21:00,
2013-01-29 12:32:00,61.0,35.0,30.04,ESE,104,0.0,-999.0,38,-99.99,,,-99.99,,2013-01-29 20:32:00,
2013-01-29 12:41:00,61.0,35.0,30.04,ESE,104,0.0,-999.0,38,-99.99,,,-99.99,,2013-01-29 20:41:00,
2013-01-29 12:53:00,61.0,36.0,30.04,NE,35,0.0,-999.0,39,-99.99,,,-99.99,,2013-01-29 20:53:00,
2013-01-29 13:01:00,61.0,36.0,30.03,East,86,1.0,-999.0,40,-99.99,,,-99.99,,2013-01-29 21:01:00,
2013-01-29 13:11:00,61.0,36.0,30.03,East,86,1.0,-999.0,40,-99.99,,,-99.99,,2013-01-29 21:11:00,
2013-01-29 13:21:00,61.0,35.0,30.03,ENE,77,0.0,-999.0,38,-99.99,,,-99.99,,2013-01-29 21:21:00,
2013-01-29 13:32:00,61.0,35.0,30.03,East,82,0.0,-999.0,38,-99.99,,,-99.99,,2013-01-29 21:32:00,
2013-01-29 13:41:00,61.0,35.0,30.03,East,82,0.0,-999.0,38,-99.99,,,-99.99,,2013-01-29 21:41:00,
2013-01-29 13:52:00,61.0,35.0,30.02,ESE,112,0.0,-999.0,38,-99.99,,,-99.99,,2013-01-29 21:52:00,
2013-01-29 14:01:00,61.0,36.0,30.02,NE,51,0.0,-999.0,40,-99.99,,,-99.99,,2013-01-29 22:01:00,
2013-01-29 14:11:00,61.0,36.0,30.02,NE,51,0.0,-999.0,40,-99.99,,,-99.99,,2013-01-29 22:11:00,
2013-01-29 14:21:00,61.0,38.0,30.02,ESE,112,1.0,-999.0,42,-99.99,,,-99.99,,2013-01-29 22:21:00,
2013-01-29 14:32:00,60.0,37.0,30.01,ENE,76,0.0,-999.0,42,-99.99,,,-99.99,,2013-01-29 22:32:00,
2013-01-29 14:42:00,60.0,37.0,30.01,ENE,76,0.0,-999.0,42,-99.99,,,-99.99,,2013-01-29 22:42:00,
2013-01-29 14:53:00,60.0,37.0,30.01,East,96,0.0,-999.0,43,-99.99,,,-99.99,,2013-01-29 22:53:00,
2013-01-29 15:01:00,60.0,37.0,30.02,NE,34,0.0,-999.0,43,-99.99,,,-99.99,,2013-01-29 23:01:00,
2013-01-29 15:11:00,60.0,37.0,30.02,NE,34,0.0,-999.0,43,-99.99,,,-99.99,,2013-01-29 23:11:00,
2013-01-29 15:22:00,60.0,37.0,30.02,NE,56,0.0,-999.0,43,-99.99,,,-99.99,,2013-01-29 23:22:00,
2013-01-29 15:32:00,60.0,38.0,30.02,ESE,122,1.0,-999.0,44,-99.99,,,-99.99,,2013-01-29 23:32:00,
2013-01-29 15:41:00,60.0,38.0,30.02,ESE,122,1.0,-999.0,44,-99.99,,,-99.99,,2013-01-29 23:41:00,
2013-01-29 15:53:00,59.0,38.0,30.02,ESE,111,0.0,-999.0,46,-99.99,,,-99.99,,2013-01-29 23:53:00,
2013-01-29 16:02:00,59.0,38.0,30.02,ESE,111,0.0,-999.0,46,-99.99,,,-99.99,,2013-01-30 00:02:00,
2013-01-29 16:11:00,59.0,38.0,30.02,ESE,111,0.0,-999.0,46,-99.99,,,-99.99,,2013-01-30 00:11:00,
2013-01-29 16:21:00,59.0,38.0,30.02,ESE,103,0.0,-999.0,46,-99.99,,,-99.99,,2013-01-30 00:21:00,
2013-01-29 16:32:00,58.0,37.0,30.02,ESE,107,0.0,-999.0,46,-99.99,,,-99.99,,2013-01-30 00:32:00,
2013-01-29 16:43:00,58.0,37.0,30.02,ESE,107,0.0,-999.0,46,-99.99,,,-99.99,,2013-01-30 00:43:00,
2013-01-29 16:52:00,57.0,39.0,30.02,ESE,107,0.0,-999.0,50,-99.99,,,-99.99,,2013-01-30 00:52:00,
2013-01-29 17:01:00,56.0,38.0,30.02,ESE,107,0.0,-999.0,51,-99.99,,,-99.99,,2013-01-30 01:01:00,
2013-01-29 17:11:00,56.0,38.0,30.02,ESE,107,0.0,-999.0,51,-99.99,,,-99.99,,2013-01-30 01:11:00,
2013-01-29 17:22:00,56.0,41.0,30.03,ESE,107,0.0,-999.0,56,-99.99,,,-99.99,,2013-01-30 01:22:00,
2013-01-29 17:31:00,55.0,41.0,30.03,ESE,107,0.0,-999.0,59,-99.99,,,-99.99,,2013-01-30 01:31:00,
2013-01-29 17:42:00,55.0,41.0,30.03,ESE,107,0.0,-999.0,59,-99.99,,,-99.99,,2013-01-30 01:42:00,
2013-01-29 17:52:00,53.0,37.0,30.03,ESE,107,0.0,-999.0,54,-99.99,,,-99.99,,2013-01-30 01:52:00,
2013-01-29 18:01:00,52.0,38.0,30.04,ESE,107,0.0,-999.0,59,-99.99,,,-99.99,,2013-01-30 02:01:00,
2013-01-29 18:11:00,52.0,38.0,30.04,ESE,107,0.0,-999.0,59,-99.99,,,-99.99,,2013-01-30 02:11:00,
2013-01-29 18:21:00,51.0,38.0,30.04,WSW,238,0.0,-999.0,60,-99.99,,,-99.99,,2013-01-30 02:21:00,
2013-01-29 18:32:00,50.0,38.0,30.05,WSW,238,0.0,-999.0,63,-99.99,,,-99.99,,2013-01-30 02:32:00,
2013-01-29 18:41:00,50.0,38.0,30.05,WSW,238,0.0,-999.0,63,-99.99,,,-99.99,,2013-01-30 02:41:00,
2013-01-29 18:53:00,49.0,38.0,30.06,WSW,238,0.0,-999.0,65,-99.99,,,-99.99,,2013-01-30 02:53:00,
2013-01-29 19:02:00,48.0,37.0,30.06,WSW,239,0.0,-999.0,65,-99.99,,,-99.99,,2013-01-30 03:02:00,
2013-01-29 19:11:00,48.0,37.0,30.06,WSW,239,0.0,-999.0,65,-99.99,,,-99.99,,2013-01-30 03:11:00,
2013-01-29 19:21:00,48.0,37.0,30.06,WSW,239,0.0,-999.0,66,-99.99,,,-99.99,,2013-01-30 03:21:00,
2013-01-29 19:31:00,47.0,37.0,30.06,WSW,239,0.0,-999.0,67,-99.99,,,-99.99,,2013-01-30 03:31:00,
2013-01-29 19:41:00,47.0,37.0,30.06,WSW,239,0.0,-999.0,67,-99.99,,,-99.99,,2013-01-30 03:41:00,
2013-01-29 19:52:00,47.0,37.0,30.06,WSW,239,0.0,-999.0,67,-99.99,,,-99.99,,2013-01-30 03:52:00,
2013-01-29 20:01:00,47.0,37.0,30.06,WSW,246,0.0,-999.0,67,-99.99,,,-99.99,,2013-01-30 04:01:00,
2013-01-29 20:11:00,47.0,37.0,30.06,WSW,246,0.0,-999.0,67,-99.99,,,-99.99,,2013-01-30 04:11:00,
2013-01-29 20:21:00,47.0,37.0,30.08,WSW,247,0.0,-999.0,69,-99.99,,,-99.99,,2013-01-30 04:21:00,
2013-01-29 20:31:00,46.0,36.0,30.07,WSW,247,0.0,-999.0,69,-99.99,,,-99.99,,2013-01-30 04:31:00,
2013-01-29 20:41:00,46.0,36.0,30.07,WSW,247,0.0,-999.0,69,-99.99,,,-99.99,,2013-01-30 04:41:00,
2013-01-29 20:52:00,46.0,36.0,30.07,WSW,247,0.0,-999.0,69,-99.99,,,-99.99,,2013-01-30 04:52:00,
2013-01-29 21:03:00,46.0,36.0,30.08,WSW,247,0.0,-999.0,69,-99.99,,,-99.99,,2013-01-30 05:03:00,
2013-01-29 21:11:00,46.0,37.0,30.08,WSW,247,0.0,-999.0,70,-99.99,,,-99.99,,2013-01-30 05:11:00,
2013-01-29 21:22:00,46.0,37.0,30.08,WSW,247,0.0,-999.0,70,-99.99,,,-99.99,,2013-01-30 05:22:00,
2013-01-29 21:32:00,45.0,36.0,30.08,WSW,247,0.0,-999.0,70,-99.99,,,-99.99,,2013-01-30 05:32:00,
2013-01-29 21:42:00,45.0,36.0,30.08,WSW,247,0.0,-999.0,70,-99.99,,,-99.99,,2013-01-30 05:42:00,
2013-01-29 21:52:00,45.0,36.0,30.08,WSW,247,0.0,-999.0,71,-99.99,,,-99.99,,2013-01-30 05:52:00,
2013-01-29 22:02:00,44.0,36.0,30.08,WSW,247,0.0,-999.0,73,-99.99,,,-99.99,,2013-01-30 06:02:00,
2013-01-29 22:11:00,44.0,36.0,30.08,WSW,247,0.0,-999.0,73,-99.99,,,-99.99,,2013-01-30 06:11:00,
2013-01-29 22:21:00,44.0,37.0,30.08,WSW,247,0.0,-999.0,75,-99.99,,,-99.99,,2013-01-30 06:21:00,
2013-01-29 22:31:00,44.0,37.0,30.09,WSW,247,0.0,-999.0,76,-99.99,,,-99.99,,2013-01-30 06:31:00,
2013-01-29 22:41:00,44.0,37.0,30.09,WSW,247,0.0,-999.0,76,-99.99,,,-99.99,,2013-01-30 06:41:00,
2013-01-29 22:52:00,43.0,36.0,30.09,WSW,247,0.0,-999.0,76,-99.99,,,-99.99,,2013-01-30 06:52:00,
2013-01-29 23:01:00,43.0,36.0,30.09,WSW,247,0.0,-999.0,76,-99.99,,,-99.99,,2013-01-30 07:01:00,
2013-01-29 23:11:00,43.0,36.0,30.09,WSW,247,0.0,-999.0,76,-99.99,,,-99.99,,2013-01-30 07:11:00,
2013-01-29 23:21:00,43.0,36.0,30.10,WSW,247,0.0,-999.0,77,-99.99,,,-99.99,,2013-01-30 07:21:00,
2013-01-29 23:31:00,43.0,36.0,30.09,WSW,247,0.0,-999.0,77,-99.99,,,-99.99,,2013-01-30 07:31:00,
2013-01-29 23:41:00,43.0,36.0,30.09,WSW,247,0.0,-999.0,77,-99.99,,,-99.99,,2013-01-30 07:41:00,
2013-01-29 23:52:00,43.0,36.0,30.09,WSW,247,0.0,-999.0,77,-99.99,,,-99.99,,2013-01-30 07:52:00,